This is the latest recevied weather packets stored in our database for station/object KN6KS. If no packets are shown the sender has not sent any weather packets the latest 10 day(s).
| Time | Temp. | Humidity | Pressure | Rain* | Wind** | Luminosity | Snow |
|---|---|---|---|---|---|---|---|
| 1777916871 | 13.89° C | 55% | 1013.1 hPa | 0 mm | - | 452 W/m² | - |
| 1777916569 | 13.33° C | 54% | 1013.1 hPa | 0 mm | - | 793 W/m² | - |
| 1777916265 | 13.33° C | 55% | 1013.1 hPa | 0 mm | - | 794 W/m² | - |
| 1777915962 | 13.33° C | 55% | 1012.9 hPa | 0 mm | - | 882 W/m² | - |
| 1777915659 | 13.33° C | 58% | 1013.1 hPa | 0 mm | - | 782 W/m² | - |
| 1777915356 | 13.33° C | 58% | 1012.8 hPa | 0 mm | - | 779 W/m² | - |
| 1777915052 | 13.33° C | 57% | 1012.9 hPa | 0 mm | - | 385 W/m² | - |
| 1777914749 | 13.33° C | 56% | 1013 hPa | 0 mm | - | 787 W/m² | - |
| 1777914446 | 13.33° C | 58% | 1013 hPa | 0 mm | - | 793 W/m² | - |
| 1777914143 | 12.78° C | 59% | 1012.9 hPa | 0 mm | - | 808 W/m² | - |
| 1777913839 | 12.78° C | 61% | 1013.1 hPa | 0 mm | - | 222 W/m² | - |
| 1777913535 | 12.78° C | 61% | 1012.9 hPa | 0 mm | - | 342 W/m² | - |
| 1777913232 | 12.22° C | 63% | 1012.9 hPa | 0 mm | - | 501 W/m² | - |
| 1777912930 | 12.22° C | 65% | 1012.9 hPa | 0 mm | - | 162 W/m² | - |
| 1777912625 | 12.22° C | 65% | 1013 hPa | 0 mm | - | 161 W/m² | - |
| 1777912321 | 12.22° C | 65% | 1012.9 hPa | 0 mm | - | 155 W/m² | - |
| 1777912017 | 12.22° C | 66% | 1013.1 hPa | 0 mm | - | 459 W/m² | - |
| 1777911713 | 11.67° C | 67% | 1012.9 hPa | 0 mm | - | 154 W/m² | - |
| 1777911410 | 12.22° C | 67% | 1012.9 hPa | 0 mm | - | 177 W/m² | - |
| 1777911108 | 11.67° C | 68% | 1012.9 hPa | 0 mm | - | 204 W/m² | - |
| 1777910805 | 11.67° C | 68% | 1012.6 hPa | 0 mm | - | 632 W/m² | - |
| 1777910502 | 11.67° C | 69% | 1013 hPa | 0 mm | - | 585 W/m² | - |
| 1777910198 | 11.11° C | 70% | 1013.1 hPa | 0 mm | - | 178 W/m² | - |
| 1777909895 | 11.11° C | 70% | 1013 hPa | 0 mm | - | 177 W/m² | - |
| 1777909592 | 11.11° C | 70% | 1012.8 hPa | 0 mm | - | 181 W/m² | - |
* Rain latest hour (hover to see other rain measurements)
** Current wind speed in m/s (hover to see current wind gust speed)